This demonstration page uses our WeatherBlox Daily Observations layout. Learn more.

Left ArrowRight Arrow

Hourly Observations for May 26, 2015

Temp ( °F °C ) Dew Point ( °F °C ) Humidity (%) Winds ( mph kmh ) Pressure ( in mb ) Visibility ( mi km ) Precip ( " mm )
12:16 am 00:16 Clear 68 20 68 20 100 100 SSW 8 13 30.09 1019 10 16.0934 N/A
12:36 am 00:36 Mostly Cloudy 68 20 N/A N/A S 10 17 30.09 1019 10 16.0934 N/A
12:56 am 00:56 Mostly Cloudy 66 19 N/A N/A SSW 8 13 30.09 1019 10 16.0934 N/A
1:16 am 01:16 Mostly Cloudy 68 20 N/A N/A SSW 10 17 30.09 1019 10 16.0934 N/A
1:36 am 01:36 Cloudy 68 20 N/A N/A SSW 8 13 30.09 1019 10 16.0934 N/A
1:56 am 01:56 Partly Cloudy 66 19 N/A N/A S 7 11 30.06 1018 10 16.0934 N/A
2:16 am 02:16 Clear 66 19 N/A N/A S 6 9 30.06 1018 10 16.0934 N/A
2:37 am 02:37 Clear 66 19 N/A N/A S 5 7 30.06 1018 10 16.0934 N/A
2:56 am 02:56 Clear 64 18 N/A N/A S 3 6 30.06 1018 10 16.0934 N/A
3:16 am 03:16 Partly Cloudy 64 18 N/A N/A S 7 11 30.06 1018 10 16.0934 N/A
3:36 am 03:36 Mostly Cloudy 64 18 N/A N/A S 6 9 30.06 1018 10 16.0934 N/A
3:56 am 03:56 Cloudy 66 19 N/A N/A S 10 17 30.06 1018 10 16.0934 N/A
4:16 am 04:16 Cloudy 66 19 N/A N/A S 9 15 30.06 1018 10 16.0934 N/A
4:36 am 04:36 Cloudy 66 19 N/A N/A S 10 17 30.06 1018 10 16.0934 N/A
4:56 am 04:56 Cloudy 66 19 N/A N/A S 13 20 30.06 1018 10 16.0934 N/A
5:16 am 05:16 Cloudy 66 19 N/A N/A S 9 15 30.06 1018 10 16.0934 N/A
5:36 am 05:36 Cloudy 66 19 N/A N/A S 8 13 30.06 1018 10 16.0934 N/A
5:57 am 05:57 Cloudy 66 19 N/A N/A S 10 17 30.06 1018 10 16.0934 N/A
6:16 am 06:16 Cloudy 66 19 N/A N/A S 8 13 30.06 1018 10 16.0934 N/A
6:36 am 06:36 Cloudy 66 19 N/A N/A S 7 11 30.06 1018 10 16.0934 N/A
6:56 am 06:56 Cloudy 66 19 N/A N/A S 8 13 30.06 1018 10 16.0934 N/A
7:16 am 07:16 Cloudy 68 20 N/A N/A S 9 15 30.06 1018 10 16.0934 N/A
7:36 am 07:36 Mostly Cloudy 68 20 N/A N/A S 9 15 30.06 1018 10 16.0934 N/A
7:56 am 07:56 Partly Cloudy 68 20 N/A N/A S 9 15 30.06 1018 10 16.0934 N/A
8:16 am 08:16 Partly Cloudy 70 21 63 17 78 78 S 15 24 30.06 1018 10 16.0934 N/A
8:36 am 08:36 Partly Cloudy 70 21 61 16 73 73 S 15 24 30.06 1018 10 16.0934 N/A
8:56 am 08:56 Sunny 72 22 59 15 65 65 S 15 24 30.03 1017 10 16.0934 N/A
9:16 am 09:16 Sunny 73 23 55 13 53 53 S 14 22 30.03 1017 10 16.0934 N/A
9:36 am 09:36 Sunny 75 24 55 13 50 50 S 13 20 30.03 1017 10 16.0934 N/A
9:56 am 09:56 Sunny 75 24 55 13 50 50 S 15 24 30.03 1017 10 16.0934 N/A
10:17 am 10:17 Partly Cloudy 75 24 55 13 50 50 S 14 22 30 1016 10 16.0934 N/A
10:36 am 10:36 Partly Cloudy 77 25 55 13 47 47 SSW 15 24 30 1016 10 16.0934 N/A
10:56 am 10:56 Partly Cloudy 79 26 55 13 45 45 S 15 24 30 1016 10 16.0934 N/A
11:16 am 11:16 Sunny 81 27 54 12 39 39 S 17 28 29.97 1015 10 16.0934 N/A
11:36 am 11:36 Partly Cloudy 81 27 54 12 39 39 S 17 28 29.97 1015 10 16.0934 N/A
11:56 am 11:56 Partly Cloudy 82 28 52 11 35 35 S 15 24 29.97 1015 10 16.0934 N/A
12:16 pm 12:16 Sunny 82 28 52 11 35 35 S 20 31 29.97 1015 10 16.0934 N/A
12:36 pm 12:36 Partly Cloudy 82 28 50 10 32 32 S 23 37 29.97 1015 10 16.0934 N/A
12:56 pm 12:56 Partly Cloudy 82 28 50 10 32 32 S 18 30 29.94 1014 10 16.0934 N/A
1:16 pm 13:16 Partly Cloudy 81 27 52 11 37 37 S 16 26 29.94 1014 10 16.0934 N/A
1:36 pm 13:36 Partly Cloudy 81 27 52 11 37 37 S 21 33 29.94 1014 10 16.0934 N/A
1:56 pm 13:56 Partly Cloudy 81 27 52 11 37 37 S 20 31 29.94 1014 10 16.0934 N/A
2:16 pm 14:16 Partly Cloudy 81 27 52 11 37 37 S 20 31 29.91 1013 10 16.0934 N/A
2:37 pm 14:37 Mostly Cloudy 73 23 66 19 78 78 SSW 20 31 29.94 1014 2 3.21868 N/A
2:56 pm 14:56 Cloudy 68 20 N/A N/A SSW 10 17 29.97 1015 2.5 4.02335 N/A
3:16 pm 15:16 Cloudy 68 20 N/A N/A SSW 10 17 29.97 1015 5 8.0467 N/A
3:36 pm 15:36 Cloudy 68 20 N/A N/A S 9 15 29.97 1015 7 11.26538 N/A
3:56 pm 15:56 Cloudy 70 21 N/A N/A S 12 19 29.94 1014 7 11.26538 N/A
4:16 pm 16:16 Cloudy 70 21 N/A N/A S 13 20 29.91 1013 7 11.26538 N/A
4:36 pm 16:36 Mostly Cloudy 72 22 N/A N/A S 12 19 29.91 1013 10 16.0934 N/A
4:56 pm 16:56 Partly Cloudy 73 23 N/A N/A S 16 26 29.91 1013 10 16.0934 N/A
5:16 pm 17:16 Partly Cloudy 75 24 N/A N/A S 13 20 29.91 1013 10 16.0934 N/A
5:36 pm 17:36 Partly Cloudy 75 24 64 18 69 69 S 15 24 29.91 1013 10 16.0934 N/A
5:56 pm 17:56 Partly Cloudy 75 24 64 18 69 69 S 15 24 29.91 1013 10 16.0934 N/A
6:16 pm 18:16 Sunny 75 24 64 18 69 69 S 14 22 29.91 1013 10 16.0934 N/A
6:36 pm 18:36 Sunny 75 24 64 18 69 69 SSW 13 20 29.91 1013 10 16.0934 N/A
6:56 pm 18:56 Partly Cloudy 75 24 64 18 69 69 S 12 19 29.88 1012 10 16.0934 N/A
7:16 pm 19:16 Partly Cloudy 75 24 63 17 65 65 S 14 22 29.88 1012 10 16.0934 N/A
7:36 pm 19:36 Sunny 75 24 63 17 65 65 S 13 20 29.91 1013 10 16.0934 N/A
7:56 pm 19:56 Partly Cloudy 73 23 63 17 69 69 S 13 20 29.91 1013 10 16.0934 N/A
8:16 pm 20:16 Partly Cloudy 75 24 57 14 54 54 SSW 15 24 29.91 1013 10 16.0934 N/A
8:36 pm 20:36 Partly Cloudy 73 23 55 13 53 53 SW 10 17 29.91 1013 10 16.0934 N/A
8:56 pm 20:56 Partly Cloudy 73 23 54 12 50 50 SW 9 15 29.91 1013 10 16.0934 N/A
9:16 pm 21:16 Partly Cloudy 73 23 55 13 53 53 SW 9 15 29.94 1014 10 16.0934 N/A
9:36 pm 21:36 Partly Cloudy 72 22 54 12 53 53 SW 12 19 29.94 1014 10 16.0934 N/A
9:57 pm 21:57 Partly Cloudy 72 22 50 10 47 47 SW 10 17 29.94 1014 10 16.0934 N/A
10:16 pm 22:16 Partly Cloudy 70 21 52 11 53 53 SSW 7 11 29.97 1015 10 16.0934 N/A
10:36 pm 22:36 Clear 70 21 52 11 53 53 SSW 6 9 29.97 1015 10 16.0934 N/A
10:56 pm 22:56 Clear 68 20 52 11 56 56 SW 7 11 30 1016 10 16.0934 N/A
11:16 pm 23:16 Clear 68 20 52 11 56 56 SSW 5 7 30 1016 10 16.0934 N/A
11:36 pm 23:36 Clear 68 20 54 12 60 60 SSW 7 11 30 1016 10 16.0934 N/A
11:56 pm 23:56 Clear 68 20 54 12 60 60 SSW 6 9 30 1016 10 16.0934 N/A

Powered by AerisWeather